Weather History for KAKO - October, 2014

Change the Weather History Date:

Tuesday, October 14, 2014

  Actual Average Record
Temperature  
Mean Temperature 53 °F 51 °F  
Max Temperature 70 °F 64 °F 86 °F (1962)
Min Temperature 36 °F 37 °F 7 °F (1969)
Degree Days  
Heating Degree Days 12    
Month to date heating degree days 158  
Cooling Degree Days 0    
Month to date cooling degree days 0  
Growing Degree Days 4 (Base 50)    
Moisture  
Dew Point 30 °F    
Average Humidity 45    
Maximum Humidity 70    
Minimum Humidity 20    
Precipitation  
Precipitation 0.00 in 0.04 in 0.66 in (1966)
Month to date precipitation 0.22 0.59  
Year to date precipitation 17.76 15.24  
Sea Level Pressure  
Sea Level Pressure 30.09 in    
Wind  
Wind Speed 10 mph (WSW)    
Max Wind Speed 15 mph    
Max Gust Speed 18 mph    
Visibility 10 miles    
Events      
T = Trace of Precipitation, MM = Missing Value Source: NWS Daily Summary

Daily Weather History Graph

Daily Weather History Graph

Search for Another Location

Airport or City:

Trip Planner

Search our weather history database for the weather conditions in past years. The results will help you decide how hot, cold, wet, or windy it might be!

Date:

Astronomy

Oct. 14, 2014 Rise Set
Actual Time 7:02 AM MDT 6:14 PM MDT
Civil Twilight 6:35 AM MDT 6:41 PM MDT
Nautical Twilight 6:03 AM MDT 7:13 PM MDT
Astronomical Twilight 5:32 AM MDT 7:44 PM MDT
Moon 11:22 PM MDT (10/14) 1:05 PM MDT (10/14)
Length of Visible Light 12h 06m
Length of Day
11h 12m
Waning Gibbous, 60% of the Moon is Illuminated
Oct 14
Waning Gibbous
Oct 15
Last Quarter
Oct 23
New
Oct 30
First Quarter
Nov 6
Full

Hourly Weather History & Observations

Time (MDT) Temp. Windchill Dew Point Humidity Pressure Visibility Wind Dir Wind Speed Gust Speed Precip Events Conditions
12:53 AM 37.0 °F 30.4 °F 28.0 °F 70% 30.13 in 10.0 mi WSW 9.2 mph - N/A   Clear
1:53 AM 37.9 °F 32.1 °F 27.0 °F 65% 30.12 in 10.0 mi WSW 8.1 mph - N/A   Clear
2:53 AM 37.9 °F 30.5 °F 27.0 °F 65% 30.11 in 10.0 mi WSW 11.5 mph - N/A   Clear
3:53 AM 37.9 °F 30.0 °F 28.0 °F 68% 30.10 in 10.0 mi West 12.7 mph - N/A   Clear
4:53 AM 39.9 °F 32.1 °F 28.0 °F 63% 30.10 in 10.0 mi West 13.8 mph - N/A   Clear
5:53 AM 37.9 °F 30.0 °F 28.0 °F 68% 30.13 in 10.0 mi West 12.7 mph - N/A   Clear
6:53 AM 37.0 °F 28.9 °F 28.0 °F 70% 30.17 in 10.0 mi West 12.7 mph - N/A   Clear
7:53 AM 41.0 °F 34.3 °F 30.0 °F 65% 30.17 in 10.0 mi West 11.5 mph - N/A   Clear
8:53 AM 46.0 °F 40.6 °F 32.0 °F 58% 30.16 in 10.0 mi West 11.5 mph - N/A   Clear
9:53 AM 52.0 °F - 33.1 °F 49% 30.15 in 10.0 mi West 10.4 mph - N/A   Clear
10:53 AM 57.0 °F - 33.1 °F 40% 30.14 in 10.0 mi WSW 8.1 mph - N/A   Clear
11:53 AM 61.0 °F - 30.0 °F 31% 30.11 in 10.0 mi WNW 8.1 mph - N/A   Clear
12:53 PM 64.9 °F - 30.0 °F 27% 30.09 in 10.0 mi SW 5.8 mph - N/A   Clear
1:53 PM 69.1 °F - 27.0 °F 21% 30.05 in 10.0 mi WNW 10.4 mph - N/A   Clear
2:53 PM 70.0 °F - 27.0 °F 20% 30.04 in 10.0 mi NW 6.9 mph - N/A   Clear
3:53 PM 70.0 °F - 28.9 °F 22% 30.03 in 10.0 mi WNW 8.1 mph - N/A   Clear
4:53 PM 69.1 °F - 28.9 °F 22% 30.02 in 10.0 mi WSW 3.5 mph - N/A   Clear
5:53 PM 64.0 °F - 33.1 °F 31% 30.05 in 10.0 mi SW 5.8 mph - N/A   Clear
6:53 PM 57.0 °F - 33.1 °F 40% 30.08 in 10.0 mi SW 5.8 mph - N/A   Clear
7:53 PM 52.0 °F - 30.9 °F 45% 30.09 in 10.0 mi SSW 5.8 mph - N/A   Clear
8:53 PM 52.0 °F - 32.0 °F 47% 30.08 in 10.0 mi South 8.1 mph - N/A   Clear
9:53 PM 53.1 °F - 30.9 °F 43% 30.06 in 10.0 mi South 9.2 mph - N/A   Clear
10:53 PM 51.1 °F - 30.0 °F 44% 30.04 in 10.0 mi South 9.2 mph - N/A   Clear
11:53 PM 51.1 °F - 30.0 °F 44% 30.01 in 10.0 mi SSW 10.4 mph - N/A   Clear